Regional Weather Roundup
Issued by NWS Upton, NY

Current Version | Previous Version | Text Only | Print | Product List | Glossary On
Versions: 1 2 3 4 5 6 7 8 9 10 11 12 13 14 15 16 17 18 19 20 21 22 23 24 25 26 27 28 29 30 31 32 33 34 35 36 37 38 39 40 41 42 43 44 45 46 47 48 49 50
000
ASUS41 KOKX 090204
RWROKX

REGIONAL WEATHER ROUNDUP
NATIONAL WEATHER SERVICE NEW YORK NY
900 PM EST MON FEB 08 2016

NOTE: "FAIR" INDICATES FEW OR NO CLOUDS BELOW 12,000 FEET WITH NO
SIGNIFICANT WEATHER AND/OR OBSTRUCTIONS TO VISIBILITY.

NYZ071-072-176-178-NJZ106-104-090300-
NEW YORK CITY METRO AREA


CITY           SKY/WX    TMP DP  RH WIND       PRES   REMARKS
CENTRAL PARK   CLOUDY    29  21  72 VRB6      29.82R WCI  23
LAGUARDIA APRT FLURRIES  29  23  78 NE9       29.80R WCI  20
KENNEDY INTL   FLURRIES  29  24  82 NE7       29.82R WCI  22
NEWARK/LIBERTY CLOUDY    31  23  72 NE12      29.81R WCI  22
BRNX BOT. GARD   N/A     30  23  74 E8        29.81R WCI  23
TETERBORO      FLURRIES  30  21  69 NE6       29.80R WCI  24
$$

NYZ177-179-078>081-090300-
LONG ISLAND NEW YORK

CITY           SKY/WX    TMP DP  RH WIND       PRES   REMARKS
FARMINGDALE    CLOUDY    28  23  81 NE5       29.81R WCI  23
ISLIP          LGT SNOW  26  22  84 N8        29.78R VSB 1   WCI  18
SHIRLEY        FLURRIES  26  23  88 N5        29.80S WCI  20
RIVERHEAD        N/A     27  21  80 E1        29.77S
WESTHAMPTON      N/A    N/A N/A N/A MISG      29.80S
EAST HAMPTON   CLOUDY    25  20  82 N8        29.78S WCI  16
MONTAUK POINT    N/A     25  19  78 N12G18    29.79R WCI  14
$$

NYZ052-065-067-090300-
HUDSON VALLEY

CITY           SKY/WX    TMP DP  RH WIND       PRES   REMARKS
WHITE PLAINS   LGT SNOW  26  22  84 CALM      29.78R FOG
NEWBURGH       LGT SNOW  27  25  93 E9        29.78S WCI  17
MONTGOMERY     LGT SNOW  27  24  89 N6        29.78R FOG     WCI  20
POUGHKEEPSIE   LGT SNOW  28  22  78 N8        29.80R WCI  20
ALBANY         LGT SNOW  25  21  85 W6        29.81S FOG     WCI  18
$$

NJZ001-105-106-008-010-013-015-019>022-104-090300-
NEW JERSEY

CITY           SKY/WX    TMP DP  RH WIND       PRES   REMARKS
NEWARK/LIBERTY CLOUDY    31  23  72 NE12      29.81R WCI  22
TETERBORO      FLURRIES  30  21  69 NE6       29.80R WCI  24
CALDWELL       CLOUDY    30  24  78 E9        29.80R WCI  22
MORRISTOWN     CLOUDY    30  27  86 E8        29.80R WCI  23
SOMERVILLE     CLOUDY    33  24  69 E6        29.76R WCI  28
SUSSEX         CLOUDY    28  22  78 E9        29.77R WCI  19
ANDOVER          N/A     29  21  72 NE7       29.75S WCI  22
TRENTON        CLOUDY    33  25  72 E9        29.77R WCI  25
MILLVILLE      LGT SNOW  33  30  88 E8        29.76S FOG     WCI  26
ATLANTIC CITY  CLOUDY    34  30  85 E7        29.77S WCI  28
WRIGHTSTOWN    CLOUDY    32  32  99 E10       29.75S WCI  23
TOMS RIVER     CLOUDY    30  27  86 NE7       29.79S WCI  23
BELMAR         CLOUDY    30  21  69 NE8       29.79R WCI  23
$$

PAZ047>061-062-071-090300-
EASTERN PENNSYLVANIA

CITY           SKY/WX    TMP DP  RH WIND       PRES   REMARKS
PHILADELPHIA   LGT RAIN  36  24  62 SE12      29.77S WCI  28
ALLENTOWN      CLOUDY    37  20  50 E12       29.73S WCI  29
SCRANTON       CLOUDY    34  17  50 SE8G17    29.67S WCI  27
$$

CTZ002-004>006-009-010-012-RIZ004-006-007-MAZ004-011-015-090300-
SOUTHERN NEW ENGLAND
 IN CT

CITY           SKY/WX    TMP DP  RH WIND       PRES   REMARKS
BRADLEY INTL   LGT SNOW  23  19  85 NW5       29.80R FOG     WCI  17
HARTFORD       LGT SNOW  24  20  84 N7        29.82R FOG     WCI  16
DANBURY        LGT SNOW  25  19  78 NE5       29.79R WCI  19
WTRBRY/OXFORD  LGT SNOW  21  10  63 NE8       29.77S FOG     WCI  12
BRIDGEPORT     LGT SNOW  27  21  78 NE10      29.81S WCI  17
MERIDEN        LGT SNOW  25  19  78 N7        29.81S WCI  17
NEW HAVEN      LGT SNOW  24  20  84 N9        29.79F FOG     WCI  14
CHESTER        MIX PCPN  25  21  86 N7        29.78S WCI  17
GROTON         CLOUDY    23  18  81 N14       29.79R WCI  11
WILLIMANTIC    FLURRIES  23  16  74 N9        29.80R WCI  13

 IN RI

CITY           SKY/WX    TMP DP  RH WIND       PRES   REMARKS
PROVIDENCE     LGT SNOW  21  17  84 N15G21    29.79R FOG     WCI   8
BLOCK ISLAND   CLOUDY    25  19  80 N15G21    29.74R WCI  12
WESTERLY       CLOUDY    23  17  78 N12       29.78R WCI  12

 IN MA

CITY           SKY/WX    TMP DP  RH WIND       PRES   REMARKS
BOSTON         LGT SNOW  20  16  84 N13       29.80R FOG     WCI   7
WORCESTER      LGT SNOW  18  13  80 N13G21    29.73S VSB 1   WCI   5
WESTFIELD      LGT SNOW  22  19  89 N5        29.80R FOG     WCI  16
PROVINCETOWN   LGT SNOW  30  28  92 N23G32    29.71S FOG     WCI  17
NANTUCKET      LGT SNOW  33  30  88 N22G32    29.67R FOG     WCI  21
$$

ANZ330-335-338-340-345-350-353-355-090300-
COASTAL MARINE OBSERVATIONS


STATION/POSITION TIME  SKY/WX   TEMP    WIND        PRES    VSBY  WAVE
                                AIR SEA DIR/SP/G                  HT/PER
                 (UTC)          (F)     (DEG/KT/KT) (MB)    (MI)  (FT/S)
NY HARB ENTRANCE 0150            30 43   40/ 12/ 14 1008.6         10/12
4S FIRE IS       NOT AVBL
20S FIRE ISLAND  0050            29 45   30/ 16/ 19 1007.9         10/11
GREAT SOUTH BAY  NOT AVBL
23SW MTP         0150            29 46   20/ 17/ 23 1007.5         11/12
HUDSON CANYON    0050            35 50              1006.9         15/12
KINGS POINT      0100            28 38   80/  5/  8 1008.5
EXECUTION ROCKS  NOT AVBL
CENTRAL LI SOUND 0115            27      20/ 10/ 14   N/A           2/ 3
EASTERN LI SOUND 0100            26 42   20/ 17/ 25   N/A
ROBBINS REEF     0100            30      70/ 10/ 12 1008.0
$$


>>>>>>>>>>>>>>>>>>>>>>>>>>>> KEY <<<<<<<<<<<<<<<<<<<<<<<<<<<
>                                                          <
>     SKY/WX - SKY CONDITION/PRESENT WEATHER               <
>     TMP    - TEMPERATURE IN FAHRENHEIT                   <
>     DP     - DEWPOINT IN FAHRENHEIT                      <
>     RH     - RELATIVE HUMIDITY IN PERCENT                <
>     WIND   - DIRECTION AND SPEED IN MPH                  <
>     PRES   - MEAN SEA LEVEL PRESSURE IN INCHES OF HG     <
>     WCI    - WIND CHILL INDEX                            <
>     VSB    - VISIBILITY IN MILES                         <
>     HX     - HEAT INDEX                                  <
>     TC     - TEMPERATURE IN CELSIUS                      <
>     VRB    - VARIABLE WIND DIRECTION                     <
>                                                          <
>>>>>>>>>>>>>>>>>>>>>>>>>>>> KEY <<<<<<<<<<<<<<<<<<<<<<<<<<<





USA.gov is the U.S. government's official web portal to all federal, state and local government web resources and services.